Aurora, IL

6:45 PM CDT on August 19, 2017 (GMT -0500)
Aurora Municipal

Weather History for KARR - April, 2013

Change the Weather History Date:

Thursday, April 18, 2013

  Actual Average Record
Temperature  
Mean Temperature 51 °F 49 °F  
Max Temperature 63 °F 61 °F 90 °F (2002)
Min Temperature 38 °F 38 °F 26 °F (2001)
Degree Days  
Heating Degree Days 14 16  
Month to date heating degree days 365 335  
Since 1 July heating degree days 6279 6343  
Cooling Degree Days 0 0  
Month to date cooling degree days 0 0  
Year to date cooling degree days 0 0  
Moisture  
Dew Point 49 °F    
Average Humidity 88    
Maximum Humidity 100    
Minimum Humidity 76    
Precipitation  
Precipitation 2.42 in 0.11 in 2.42 in (2013)
Month to date precipitation 6.79 1.87  
Year to date precipitation 13.01 7.19  
Sea Level Pressure  
Sea Level Pressure 29.61 in    
Wind  
Wind Speed 15 mph (NE)    
Max Wind Speed 33 mph    
Max Gust Speed 41 mph    
Visibility 5 miles    
Events Rain , Thunderstorm    
T = Trace of Precipitation, MM = Missing Value Source: NWS Daily Summary

Daily Weather History Graph

Daily Weather History Graph

Search for Another Location

Airport or City:

Trip Planner

Search our weather history database for the weather conditions in past years. The results will help you decide how hot, cold, wet, or windy it might be!

Date:

Astronomy

Apr. 18, 2013 Rise Set
Actual Time 6:08 AM CDT 7:38 PM CDT
Civil Twilight 5:39 AM CDT 8:07 PM CDT
Nautical Twilight 5:04 AM CDT 8:42 PM CDT
Astronomical Twilight 4:27 AM CDT 9:20 PM CDT
Moon 12:19 PM CDT (4/18) 1:54 AM CDT (4/18)
Length of Visible Light 14h 27m
Length of Day
13h 29m
First Quarter, 52% of the Moon is Illuminated
Apr 18
First Quarter
Apr 25
Full
May 2
Last Quarter
May 9
New
May 17
First Quarter

Hourly Weather History & Observations

Time (CDT) Temp. Windchill Dew Point Humidity Pressure Visibility Wind Dir Wind Speed Gust Speed Precip Events Conditions
12:05 AM 48.2 °F - 48.2 °F 100% 29.80 in 1.5 mi NE 3.5 mph - 0.04 in Rain , Thunderstorm Rain
12:21 AM 48.2 °F - 48.2 °F 100% 29.83 in 1.0 mi WSW 10.4 mph - 0.15 in Rain , Thunderstorm Heavy Rain
12:26 AM 48.2 °F - 46.4 °F 93% 29.84 in 0.8 mi WSW 6.9 mph - 0.25 in Rain Heavy Rain
12:35 AM 48.2 °F - 48.2 °F 100% 29.83 in 0.8 mi WNW 4.6 mph - 0.34 in Rain Heavy Rain
12:37 AM 48.2 °F - 48.2 °F 100% 29.82 in 1.0 mi Calm Calm - 0.36 in Rain Rain
12:50 AM 48.2 °F - 48.2 °F 100% 29.77 in 0.8 mi ENE 8.1 mph - 0.40 in Rain Rain
12:52 AM 48.0 °F - 48.0 °F 100% 29.78 in 0.8 mi ENE 9.2 mph - 0.40 in Rain Rain
1:07 AM 48.2 °F - 48.2 °F 100% 29.76 in 1.2 mi East 8.1 mph - 0.04 in Rain Light Rain
1:24 AM 50.0 °F - 50.0 °F 100% 29.74 in 1.8 mi ENE 11.5 mph - 0.11 in Rain , Thunderstorm Thunderstorms and Rain
1:33 AM 51.8 °F - 51.8 °F 100% 29.74 in 2.0 mi ENE 9.2 mph - 0.16 in Rain Rain
1:40 AM 51.8 °F - 51.8 °F 100% 29.73 in 2.0 mi East 9.2 mph - 0.21 in Rain , Thunderstorm Heavy Rain
1:52 AM 51.1 °F - 51.1 °F 100% 29.71 in 2.0 mi ENE 10.4 mph - 0.27 in Rain Rain
2:11 AM 51.8 °F - 51.8 °F 100% 29.70 in 2.0 mi East 11.5 mph - 0.11 in Rain , Thunderstorm Rain
2:18 AM 51.8 °F - 51.8 °F 100% 29.66 in 1.8 mi East 13.8 mph - 0.14 in Rain , Thunderstorm Thunderstorms and Rain
2:31 AM 53.6 °F - 53.6 °F 100% 29.67 in 3.0 mi East 10.4 mph - 0.18 in Rain , Thunderstorm Light Rain
2:44 AM 53.6 °F - 53.6 °F 100% 29.70 in 2.0 mi ESE 6.9 mph - 0.29 in Rain , Thunderstorm Heavy Thunderstorms and Rain
2:52 AM 54.0 °F - 53.1 °F 97% 29.65 in 1.5 mi East 10.4 mph - 0.40 in Rain , Thunderstorm Heavy Thunderstorms and Rain
2:58 AM 53.6 °F - 53.6 °F 100% 29.64 in 3.0 mi East 9.2 mph - 0.00 in Rain , Thunderstorm Light Rain
3:08 AM 53.6 °F - 53.6 °F 100% 29.66 in 6.0 mi NNW 13.8 mph - 0.00 in Rain , Thunderstorm Light Rain
3:24 AM 53.6 °F - 53.6 °F 100% 29.65 in 3.0 mi Variable 6.9 mph 18.4 mph 0.09 in Rain , Thunderstorm Thunderstorms and Rain
3:27 AM 53.6 °F - 53.6 °F 100% 29.67 in 1.8 mi NNW 11.5 mph 18.4 mph 0.17 in Rain , Thunderstorm Heavy Thunderstorms and Rain
3:41 AM 53.6 °F - 53.6 °F 100% 29.67 in 1.5 mi NW 12.7 mph - 0.42 in Rain , Thunderstorm Heavy Rain
3:52 AM 53.1 °F - 53.1 °F 100% 29.67 in 1.8 mi North 9.2 mph - 0.57 in Rain , Thunderstorm Heavy Thunderstorms and Rain
4:01 AM 51.8 °F - 51.8 °F 100% 29.67 in 3.0 mi NNW 9.2 mph - 0.03 in Rain , Thunderstorm Thunderstorms and Rain
4:11 AM 50.0 °F - 48.2 °F 94% 29.68 in 4.0 mi NNW 18.4 mph - 0.06 in Rain , Thunderstorm Rain
4:27 AM 46.4 °F 39.5 °F 46.4 °F 100% 29.63 in 5.0 mi North 17.3 mph - 0.10 in Rain , Thunderstorm Light Rain
4:41 AM 46.4 °F 39.2 °F 44.6 °F 93% 29.65 in 4.0 mi North 18.4 mph 26.5 mph 0.15 in Rain Rain
4:52 AM 45.0 °F 37.6 °F 45.0 °F 100% 29.66 in 4.0 mi North 17.3 mph - 0.19 in Rain , Thunderstorm Rain
5:10 AM 44.6 °F 38.4 °F 44.6 °F 100% 29.62 in 3.0 mi NE 12.7 mph - 0.09 in Rain , Thunderstorm Heavy Rain
5:49 AM 46.4 °F 41.1 °F 46.4 °F 100% 29.61 in 6.0 mi NNE 11.5 mph - 0.20 in Rain , Thunderstorm Light Thunderstorms and Rain
5:52 AM 46.9 °F - 46.0 °F 97% 29.64 in 6.0 mi ENE 5.8 mph - 0.21 in Rain , Thunderstorm Light Thunderstorms and Rain
5:59 AM 46.4 °F 42.4 °F 46.4 °F 100% 29.63 in 4.0 mi NNE 8.1 mph - 0.03 in Rain , Thunderstorm Heavy Thunderstorms and Rain
6:14 AM 46.4 °F 41.1 °F 46.4 °F 100% 29.61 in 2.0 mi NE 11.5 mph - 0.20 in Rain , Thunderstorm Heavy Thunderstorms and Rain
6:23 AM 46.4 °F 41.1 °F 46.4 °F 100% 29.60 in 5.0 mi ENE 11.5 mph - 0.20 in Rain , Thunderstorm Light Rain
6:52 AM 46.9 °F - 46.0 °F 97% 29.63 in 3.0 mi Variable 5.8 mph - 0.37 in Rain , Thunderstorm Thunderstorms and Rain
6:55 AM 46.4 °F 41.9 °F 46.4 °F 100% 29.60 in 1.8 mi ENE 9.2 mph - 0.10 in Rain , Thunderstorm Heavy Thunderstorms and Rain
7:06 AM 46.4 °F 41.5 °F 46.4 °F 100% 29.57 in 3.0 mi NE 10.4 mph - 0.15 in Rain , Thunderstorm Thunderstorms and Rain
7:14 AM 46.4 °F 41.5 °F 46.4 °F 100% 29.55 in 5.0 mi NE 10.4 mph - 0.16 in Rain , Thunderstorm Light Thunderstorms and Rain
7:22 AM 48.2 °F - 48.2 °F 100% 29.55 in 5.0 mi East 4.6 mph - 0.17 in Rain Light Rain
7:52 AM 48.9 °F - 48.9 °F 100% 29.54 in 5.0 mi NE 3.5 mph - 0.18 in Rain Light Rain
8:35 AM 48.2 °F - 48.2 °F 100% 29.55 in 3.0 mi WNW 5.8 mph - 0.02 in Rain Light Rain
8:42 AM 48.2 °F - 48.2 °F 100% 29.57 in 3.0 mi WNW 4.6 mph - 0.03 in Rain Light Rain
8:52 AM 48.9 °F - 48.9 °F 100% 29.61 in 2.5 mi West 8.1 mph - 0.05 in Rain Light Rain
8:59 AM 48.2 °F - 48.2 °F 100% 29.60 in 2.0 mi West 8.1 mph - 0.02 in Rain Rain
9:30 AM 50.0 °F - 48.2 °F 94% 29.54 in 1.8 mi NE 4.6 mph - 0.12 in Rain Rain
9:38 AM 50.0 °F - 48.2 °F 94% 29.52 in 2.5 mi ENE 5.8 mph - 0.13 in Rain Light Rain
9:48 AM 50.0 °F - 50.0 °F 100% 29.55 in 3.0 mi Calm Calm - 0.13 in Rain Light Rain
9:49 AM 50.0 °F - 50.0 °F 100% 29.56 in 3.0 mi Calm Calm - 0.13 in Rain Light Rain
9:59 AM 50.0 °F - 50.0 °F 100% 29.57 in 5.0 mi South 3.5 mph - 0.00 in   Overcast
10:08 AM 51.8 °F - 50.0 °F 94% 29.56 in 4.0 mi ESE 3.5 mph - 0.00 in Rain Light Rain
10:52 AM 51.1 °F - 51.1 °F 100% 29.57 in 4.0 mi Calm Calm - 0.01 in   Overcast
11:52 AM 55.9 °F - 55.9 °F 100% 29.61 in 8.0 mi SSW 11.5 mph - 0.00 in   Overcast
12:52 PM 59.0 °F - 57.9 °F 96% 29.58 in 10.0 mi South 11.5 mph - N/A   Overcast
1:23 PM 60.8 °F - 57.2 °F 88% 29.57 in 9.0 mi South 12.7 mph - 0.00 in Rain Light Rain
1:52 PM 60.1 °F - 59.0 °F 96% 29.56 in 10.0 mi South 16.1 mph - 0.01 in Rain Light Rain
2:52 PM 60.1 °F - 57.9 °F 93% 29.45 in 10.0 mi SSE 24.2 mph 41.4 mph 0.01 in   Mostly Cloudy
3:52 PM 62.1 °F - 59.0 °F 90% 29.49 in 10.0 mi SSE 21.9 mph 26.5 mph N/A   Overcast
4:52 PM 61.0 °F - 57.9 °F 90% 29.44 in 10.0 mi SSE 25.3 mph 31.1 mph N/A   Mostly Cloudy
5:36 PM 62.6 °F - 57.2 °F 82% 29.45 in 10.0 mi SSE 20.7 mph 29.9 mph 0.00 in Rain Light Rain
5:52 PM 62.1 °F - 59.0 °F 90% 29.46 in 10.0 mi South 20.7 mph 27.6 mph 0.00 in   Overcast
6:28 PM 59.0 °F - 55.4 °F 88% 29.46 in 10.0 mi SW 20.7 mph 31.1 mph 0.00 in   Overcast
6:52 PM 55.0 °F - 52.0 °F 89% 29.48 in 5.0 mi WSW 20.7 mph - 0.01 in Rain Light Rain
6:59 PM 53.6 °F - 51.8 °F 94% 29.48 in 4.0 mi WSW 26.5 mph 32.2 mph 0.00 in Rain Light Rain
7:21 PM 51.8 °F - 48.2 °F 88% 29.50 in 2.5 mi WSW 20.7 mph 33.4 mph 0.01 in Rain Light Rain
7:30 PM 50.0 °F - 48.2 °F 94% 29.49 in 2.5 mi WSW 23.0 mph 33.4 mph 0.02 in Rain Light Rain
7:32 PM 50.0 °F - 46.4 °F 87% 29.49 in 3.0 mi WSW 20.7 mph 33.4 mph 0.02 in Rain Light Rain
7:42 PM 48.2 °F - 46.4 °F 93% 29.50 in 10.0 mi WSW 20.7 mph 36.8 mph 0.02 in   Overcast
7:52 PM 48.9 °F - 46.0 °F 90% 29.52 in 10.0 mi WSW 24.2 mph 38.0 mph 0.02 in   Overcast
8:52 PM 46.0 °F 37.4 °F 41.0 °F 83% 29.57 in 10.0 mi WSW 25.3 mph 35.7 mph 0.01 in   Overcast
9:05 PM 44.6 °F 35.5 °F 39.2 °F 81% 29.57 in 10.0 mi WSW 25.3 mph 36.8 mph N/A   Overcast
9:52 PM 44.1 °F 35.2 °F 37.9 °F 79% 29.57 in 10.0 mi WSW 23.0 mph 28.8 mph N/A   Overcast
10:52 PM 42.1 °F 32.3 °F 36.0 °F 79% 29.57 in 10.0 mi WSW 24.2 mph 34.5 mph N/A   Overcast
11:36 PM 39.2 °F 28.7 °F 33.8 °F 81% 29.53 in 10.0 mi WSW 23.0 mph 35.7 mph N/A   Scattered Clouds
11:52 PM 39.0 °F 29.6 °F 33.1 °F 79% 29.54 in 10.0 mi WSW 18.4 mph 34.5 mph N/A   Partly Cloudy